Starlink 31485

operational
NORAD ID: 59308 Int'l Des: 2024-056 Owner: SPXS Country: US Constellation: starlink
LEOCIRCULAR

Starlink 31485について

説明を読み込み中...

リアルタイム位置

3D地球を読み込み中...

次回通過

高度履歴

Altitude vs Time

uPlot chart will show altitude changes over time

軌道要素

1 59308U 24056N 25352.23373942 .00000000 00000-0 95132-5 0 9997
2 59308 42.9995 330.9920 0001286 280.4638 79.6068 15.27575263 98690
Epoch: Dec 18, 2025 • Age: 8 hours

現在のステータス

高度 487.0 km
速度 7.63 km/s
衛星直下点 42.52°N, 135.33°E
打ち上げ日 Mar 24, 2024
運用期間 1.7 years
タイプ internet

技術仕様

分類 Payload
質量 730.00 kg
乾燥質量 700.00 kg
総質量 730.00 kg
長さ 0.30 m
直径 4.10 m
スパン 29.00 m
形状 Box + pan
製造者 SPXS
バスタイプ Starlink V2M
フェーズステータス In Orbit
所有者/国 SPXS/US

大規模コンステレーション

Loading constellations...